Location: Binningen
(47.7924°N, 8.7261°E)
Time: 23:08:46
(UTC+00:00)

Cosmos 1975 - Pass Details

Date: 17 May 2021
Orbit: 541 x 560 km, 82.5° (Epoch: 24 June)

Event Time Altitude Azimuth Distance (km) Brightness Sun altitude
Rises 22:30:49 0° 340° (NNW) 2,714 7.9 -21.7°
Reaches altitude 10° 22:33:12 10° 328° (NNW) 1,817 6.5 -21.8°
Maximum altitude 22:36:34 27° 270° (W) 1,071 4.3 -21.9°
Enters shadow 22:37:15 25° 253° (WSW) 1,110 4.3 -21.9°
